Location: Lafig�re
(44.4503°N, 4.0357°E)
Time: 16:31:49
(UTC+00:00)

Okean 1 Rocket - Pass Details

Date: 24 September 2020
Orbit: 606 x 635 km, 82.5° (Epoch: 20 October)

Event Time Altitude Azimuth Distance (km) Brightness Sun altitude
Rises 18:16:12 0° 150° (SSE) 2,918 6.2 -7.8°
Reaches altitude 10° 18:18:54 10° 134° (SE) 2,017 5.2 -8.3°
Maximum altitude 18:22:10 20° 86° (E) 1,460 4.4 -8.9°
Drops below altitude 10° 18:25:28 10° 39° (NE) 2,029 5.4 -9.5°
Sets 18:28:10 0° 23° (NNE) 2,942 6.4 -9.9°
